Flag Weather past 2 weeks in Bissau, Guinea-Bissau

Now
90 °F

Scattered clouds.


Feels Like: 93 °F
Forecast: N/A
Wind: 7 mph from Northeast

Location: Bissau Aeroport

Current Time: Oct 31, 2014 at 5:19:15 PM

Latest Report: Oct 31, 2014 at 5:00 PM


Visibility: N/A

Pressure: 29.83 "Hg

Humidity: 49%

Dew point: 68 °F

Location of BissauLocation

Historic Weather in Bissau — Graph

°F

Bissau temperature yesterday

Maximum temperature yesterday: 90 °F (at 9:00 PM)
Minimum temperature yesterday: 77 °F (at 12:00 AM)
Average temperature yesterday: 83 °F

Past Weeks' High & Low Weather Summary

 TemperatureHumidityPressure
High91 °F (Oct 16, 5:00 PM)100% (Oct 18, 7:00 AM)29.95 "Hg (Oct 18, 7:00 AM)
Low75 °F (Oct 21, 3:00 AM)49% (Oct 17, 2:00 PM)29.80 "Hg (Oct 17, 6:00 PM)
Average84 °F76%29.87 "Hg
* Reported Oct 16 4:00 PM — Oct 31 4:00 PM, Bissau, Weather by CustomWeather, © 2014

Note: Actual official high and low records may vary slightly from our data, if they occured in-between our weather recording intervals... More about our weather records

Advertising

Bissau weather history for previous 24 hours

 ConditionsComfort  
Time TempWeatherWind HumidityBarometerVisibility
4:00 PM
Oct 31
90 °FScattered clouds.9 mph52%29.83 "HgN/A
3:00 PM90 °FScattered clouds.8 mph55%29.86 "HgN/A
2:00 PM90 °FScattered clouds.8 mph55%29.89 "HgN/A
1:00 PM88 °FPartly sunny.7 mph62%29.89 "HgN/A
12:00 PM86 °FPartly sunny.8 mph62%29.92 "HgN/A
11:00 AM84 °FPartly sunny.7 mph74%29.92 "HgN/A
10:00 AM82 °FBroken clouds.10 mph74%29.95 "HgN/A
9:00 AM81 °FBroken clouds.8 mph94%29.95 "HgN/A
8:00 AM77 °FPartly sunny.3 mph100%29.95 "Hg6 mi
7:00 AM77 °FPartly sunny.3 mph94%29.92 "Hg5 mi
3:00 AM79 °FThunderstorms. Passing clouds.3 mph94%29.89 "HgN/A
2:00 AM81 °FThunderstorms. Passing clouds.3 mph79%29.89 "HgN/A
1:00 AM81 °FClear.2 mph89%29.92 "Hg10 mi
12:00 AM81 °FClear.2 mph89%29.92 "Hg10 mi
11:00 PM
Oct 30
82 °FClear.5 mph84%29.92 "Hg10 mi
10:00 PM82 °FClear.2 mph84%29.92 "Hg10 mi
9:00 PM90 °FClear.No wind67%29.89 "Hg10 mi
8:00 PM84 °FClear.2 mph84%29.86 "Hg10 mi
7:00 PM86 °FPassing clouds.2 mph75%29.83 "HgN/A
6:00 PM88 °FPassing clouds.3 mph66%29.86 "HgN/A
5:00 PM88 °FScattered clouds.3 mph70%29.86 "HgN/A
Weather by CustomWeather, © 2014

See weather overviewHow to use our weather pages